www.pogodaiklimat.ru

Погода и климат >> Архив погоды >> Россия >> Ростовская область >> Белая Калитва


ПОГОДА в Белой Калитве

  • Прогноз погоды в Белой Калитве
  • Монитор погоды в Белой Калитве

АРХИВ ПОГОДЫ в Белой Калитве

Время (UTC), дата Ветер
(напр.,м/с)
 
Видим.   Явления Облачность Т
(С)
Тd
(С)
f
(%)
Тe
(С)
Тes
(С)
Комфортность P
(гПа)
Po
(гПа)
Тmin
(С)
Tmax
(С)
R
(мм)
R24
(мм)
S
(см)
15 19.03 ЮВ 3 20 км 10/3 600 м
[Sc Ac trans Ci fib]
+4.4 +1.7 83 +1 +1 1028.2 1008.7 +6.1
18 19.03 В 3 20 км 10/10 600 м
[Sc]
+3.2 +1.4 88 -1 -1 1028.7 1009.1
21 19.03 В 2 20 км ясно +0.2 -0.4 96 -4 -4 1028.7 1008.9
00 20.03 В 4 4000 м дымка ясно -0.0 -0.4 97 -6 -6 1028.3 1008.5
03 20.03 В 3 4000 м дымка ясно -1.9 -2.2 98 -7 -7 1028.0 1008.1 -2.3
06 20.03 В 1 10 км в посл. час туман ясно +0.9 +0.5 97 -1 +4 1028.7 1008.9 -3.6
09 20.03 ЮВ 3 20 км ясно +9.2 -0.1 52 +7 +16 опасность
простуды
1027.4 1008.2
12 20.03 ЮВ 3 20 км ясно +11.8 -1.4 40 +11 +15 1025.2 1006.4
15 20.03 ЮВ 2 20 км ясно +10.1 -1.7 44 +9 +9 1025.1 1006.1 +12.1
18 20.03 Ю 3 20 км ясно +5.5 -2.9 55 +3 +3 1025.5 1006.1
21 20.03 Ю 2 20 км ясно +5.1 -3.6 53 +3 +3 1025.3 1005.9
00 21.03 Ю 3 20 км ясно +3.7 -3.0 62 0 0 1024.4 1005.0
03 21.03 ЮЗ 2 20 км ясно +1.1 -3.2 73 -2 -2 1024.0 1004.3 +1.1
06 21.03 З 3 20 км 1/0
[Ci fib]
+5.8 -0.4 64 +3 +7 1023.7 1004.4 +0.6
09 21.03 СЗ 5 20 км 3/0
[Ac trans Ci fib]
+8.6 +2.5 65 +5 +10 1022.8 1003.7
12 21.03 СЗ 7 4000 м слаб. ливневой дождь 10/10 300 м
[Cb cap]
+4.4 +1.9 84 -1 -1 1022.7 1003.3
15 21.03 С 2 20 км {ливн. осадки} 9/8 600 м
[Sc diur, vesp Ac trans]
+3.9 +2.0 87 +1 +1 1022.0 1002.6 +9.1 0.3
18 21.03 Ю 2 20 км {ливн. осадки} 10/8 600 м
[Sc Ac trans Ci fib]
+2.7 +1.7 93 -1 -1 1022.1 1002.6
21 21.03 ЮЗ 2 20 км 10/10 600 м
[Sc]
+2.5 +1.5 93 -1 -1 1021.7 1002.3
00 22.03 З 3 4000 м слаб. ливневой дождь 10/10 300 м
[Cb cap]
+1.6 +0.9 95 -3 -3 1021.1 1001.7
03 22.03 СЗ 3 20 км {ливн. осадки} 10/9 600 м
[Cb calv Ac As]
+0.9 -0.2 92 -4 -4 1021.3 1001.7 +0.9 1
06 22.03 СЗ 4 20 км {ливн. осадки} 10/6 600 м
[Sc Ac trans Ci fib]
+2.2 0.0 85 -3 -2 1022.6 1003.1 +0.3
09 22.03 З 3 20 км 10/10 300 м
[Cb cap]
+3.5 -1.0 72 -0 -0 1021.0 1001.7
12 22.03 З 4 20 км 8/8 600 м
[Sc]
+6.1 -3.5 50 +3 +4 1019.6 1000.4
15 22.03 З 7-11
{12}
20 км 10/10 300 м
[Cb cap]
+6.4 -0.5 61 +2 +2 1015.5 996.4 +6.9
18 22.03 ЮЗ 5
{12}
20 км 10/10 300 м
[Sc]
+4.6 +1.3 79 -0 -0 1013.4 994.2
21 22.03 ЮЗ 8-14
{17}
4000 м дымка 10/10 300 м
[Sc]
+3.4 +1.9 90 -3 -3 1007.4 988.2
00 23.03 СЗ 8-12
{14}
20 км {ливн. осадки} 10/10 600 м
[Sc]
+2.1 +0.6 90 -5 -5 1006.8 987.6
03 23.03 З 6-10
{14}
20 км 10/10 300 м
[Sc]
+1.1 -1.2 85 -5 -5 1007.8 988.6 +1.0 2
06 23.03 З 7-11
{13}
20 км 8/4 600 м
[Cb calv Ac trans Ci fib]
+1.5 -2.8 73 -5 -4 1009.2 989.9 +1.0
09 23.03 З 6-11
{14}
20 км 10/6 300 м
[Cb calv Ac trans]
+4.0 -3.5 58 -1 -0 1008.8 989.7
12 23.03 З 7-14
{14}
20 км 8/4 600 м
[Cb calv Ac trans Ci fib]
+5.1 -3.0 56
15 23.03 З 5
{14}
4000 м слаб. ливневой дождь 10/10 300 м
[Cb cap]
+1.1 -0.1 92 -5 -5 1010.3 990.9 +5.1 0.0
18 23.03 З 3 4000 м слаб. ливневой снег 10/10 300 м
[Cb cap]
+0.4 -0.3 95 -4 -4 1011.3 991.9
21 23.03 З 4 4000 м слаб. ливневой снег 10/10 300 м
[Cb cap]
+0.1 -0.3 97 -6 -6 1011.2 991.8
00 24.03 З 2 4000 м слаб. ливневой снег 10/10 300 м
[Cb cap]
0.0 -0.3 98 -4 -4 1011.3 991.9
03 24.03 З 3 4000 м слаб. ливневой снег 10/10 300 м
[Cb cap]
-0.0 -0.4 97 -5 -5 1011.7 992.3 -0.2 4 1
06 24.03 СЗ 3 4000 м слаб. ливневой снег 10/10 300 м
[Cb cap]
+0.4 +0.1 98 -4 -4 1013.2 993.7
09 24.03 З 4 4000 м слаб. ливневой снег 10/10 300 м
[Cb cap]
+1.0 +0.4 96 -4 -4 1013.3 993.8
12 24.03 З 3 20 км {ливн. осадки} 10/10 300 м
[Cb calv]
+1.7 +0.1 89 -3 -3 1012.7 993.4
15 24.03 СЗ 3 20 км {ливн. осадки} 10/10 600 м
[Cb calv]
+1.5 -0.3 88 -3 -3 1012.7 993.4 +2.6 1
18 24.03 З 3 20 км {ливн. осадки} 10/6 600 м
[Sc Ac As]
+1.3 -0.8 86 -3 -3 1013.6 994.1
21 24.03 З 2 20 км 10/10 600 м
[Sc]
+1.0 -1.0 86 -2 -2 1013.7 994.2
00 25.03 ЮЗ 3 20 км 10/9 600 м
[Sc Ac As]
+1.3 -1.1 84 -3 -3 1013.5 994.0
03 25.03 ЮЗ 3 н/о н/о +0.8 -1.3 86 -4 -4 1013.0 993.5 +0.8
06 25.03 З 3 20 км ясно +5.1 -0.5 67 +2 +6 1013.3 999.4 +0.3
09 25.03 З 4 20 км 4/4 600 м
[Cu hum]
+10.2 -2.9 40 +8 +13 1012.5 993.7
12 25.03 З 4 20 км 8/8 600 м
[Sc]
+11.6 -5.2 30 +10 +11 1012.5 993.7
15 25.03 ЮЗ 2 20 км 9/9 600 м
[Sc diur, vesp]
+9.6 -3.4 40 +9 +9 1013.2 994.4 +11.8
18 25.03 ЮЗ 3 20 км 6/4 600 м
[Sc Ac trans]
+4.7 +0.7 75 +1 +1 1014.4 995.2
21 25.03 ЮЗ 3 20 км 10/10 600 м
[Sc]
+3.3 +0.3 81 -1 -1 1015.0 995.7
00 26.03 Ю 3 20 км 9/9 600 м
[Sc]
+2.8 +0.5 85 -1 -1 1015.3 996.0
03 26.03 Ю 3 20 км 10/10 600 м
[Sc]
+3.5 +0.6 81 -0 -0 1014.9 995.7 +2.5
06 26.03 Ю 5 20 км 10/6 600 м
[Sc Ac trans]
+5.6 +0.3 69 +1 +2 1015.7 996.6
09 26.03 ЮЗ 5-10
{12}
20 км 10/5 600 м
[Sc Ac trans Ci fib]
+9.5 -0.2 51 +7 +8 1014.7 995.8

 

Местоположение метеостанции Белая Калитва (Ростовская область, Россия): широта 48.23 долгота 40.82 высота над уровнем моря 156 м.

В архиве по умолчанию представлена погода в Белой Калитве за последнюю неделю. Архивные данные за месяц целиком и за предыдущие месяцы, начиная с января 2011 года, Вы можете получить, выбрав интересующий диапазон дат из раскрывающегося списка и нажав кнопку "Ввод!".


*Определитесь, кто Вы:
робот инопланетянин человек

Внимание! Время в таблицах - всемирное. Для получения местного времени необходимо прибавить поправку, которая равна 3 ч.

Смотрите также архив погоды в соседних городах и на ближайших метеорологических станциях:

Погода в Каменск-Шахтинском (Ростовская область, Россия) (39 км)
Погода в Шахтах (Ростовская область, Россия) (72 км)
Погода в Константиновске (Ростовская область, Россия) (75 км)
Погода в Морозовске (Ростовская область, Россия) (79 км)
Погода в Семикаракорске (Ростовская область, Россия) (79 км)
Погода в Миллерово (Ростовская область, Россия) (84 км)
Погода в Аэропорту Платов (Ростовская область, Россия) (106 км)
Погода в Цимлянске (Ростовская область, Россия) (118 км)
Погода в Ростове-на-Дону (Ростовская область, Россия) (130 км)
Погода в Боковской (Ростовская область, Россия) (133 км)

Пояснения к столбцам:

Ветер - указаны скорость ветра в м/с - средняя за 10 мин, порывы в срок и между сроками (в фигурных скобках) и направление, откуда дует ветер: С - северный, СВ - северо-восточный, В - восточный, ЮВ - юго-восточный, Ю - южный, ЮЗ - юго-западный, З - западный, СЗ - северо-западный.
Видимость - горизонтальная дальность видимости в метрах или километрах. При видимости от 1 до 10 км при отсутствии осадков обычно наблюдается дымка, при ухудшении видимости до 1 км и менее - туман. В сухую погоду видимость может ухудшаться дымом, пылью или мглою.
Явления - указаны атмосферные явления, наблюдавшиеся в срок или в последний час перед сроком; фигурными скобками обозначены явления, наблюдавшиеся между сроками (за 1-3 часа до срока); квадратными скобками обозначены град или гололедные отложения с указанием их диаметра в мм.
Облачность - указаны через наклонную черту общая и нижняя облачность в баллах и высота нижней границы облаков в метрах; квадратными скобками обозначены формы облаков: Ci - перистые, Cs - перисто-слоистые, Cc - перисто-кучевые, Ac - высококучевые, As - высокослоистые, Sc - слоисто-кучевые, Ns - слоисто-дождевые, Cu - кучевые, Cb - кучево-дождевые. Подробнее классификацию облаков см. в Атласе облаков (PDF).
T - Температура воздуха - температура, измеренная на высоте 2 м над землей.
Td - Температура точки росы - температура, при понижении до которой содержащийся в воздухе водяной пар достигнет насыщения.
f - Относительная влажность воздуха - влажноcть воздуха, измеренная на высоте 2 м над землей.
Te - Эффективная температура - температура, которую ощущает одетый по сезону человек в тени. Характеристика душности погоды. При расчете учитывается влияние влажности воздуха и скорости ветра на теплоощущения человека.
Tes - Эффективная температура на солнце - температура, которую ощущает человек, с поправкой на солнечный нагрев. Характеристика знойности погоды. Зависит от высоты солнца над горизонтом, облачности и скорости ветра. Ночью, в пасмурную погоду, а также при ветре 12 м/с и более поправка равна нулю.
P - Атмосферное давление - приведенное к уровню моря атмосферное давление.
Po - Атмосферное давление - измеренное на уровне метеостанции атмосферное давление.
Tmin - Минимальная температура - минимум температуры воздуха на высоте 2 м над землей.
Tmax - Максимальная температура - максимум температуры воздуха на высоте 2 м над землей.
R - Количество осадков - Количество выпавших осадков за период времени, мм. При наведении курсора мыши на число - период времени, за который выпало указанное количество осадков.
R24 - Количество осадков - Количество выпавших осадков за 24 часа, мм.
S - Снежный покров - Высота снежного покрова, см. При наведении курсора мыши на число - состояние снежного покрова и степень покрытия местности в баллах.